Starlink 35882

operational
NORAD ID: 67088 Int'l Des: 2025-298 Owner: SPXS Country: US Constellation: starlink
LEOCIRCULAR

About Starlink 35882

Description loading...

Live Position

Loading 3D Globe...

Upcoming Passes

Altitude History

Altitude vs Time

uPlot chart will show altitude changes over time

Two-Line Element Set

1 67088C 25298P 25349.45118056 -.00609460 00000+0 -91375-3 0 3491
2 67088 70.0019 242.9277 0005810 271.4036 353.7261 16.05069661 16
Epoch: Dec 15, 2025 • Age: 44 hours

Current Status

Altitude 267.4 km
Velocity 7.75 km/s
Sub-Earth Point 4.63°N, 147.72°W
Launch Date Dec 14, 2025
Age 2 days
Type internet

Technical Details

Classification Payload
Mass 575.00 kg
Dry Mass 530.00 kg
Total Mass 575.00 kg
Length 0.30 m
Diameter 4.10 m
Span 29.00 m
Shape Box + pan
Manufacturer SPXS
Bus Type Starlink V2MO
Phase Status In Orbit
Owner/State SPXS/US

Large Constellations

Loading constellations...